Location: Nians�bougou
(13.2321°N, 4.9818°W)
Time: 09:05:40
(UTC+00:00)

Delta 142 - Pass Details

Date: 18 February 2020
Orbit: 548 x 1589 km, 28.4° (Epoch: 28 March)

Event Time Altitude Azimuth Distance (km) Brightness Sun altitude
Exits shadow 05:49:15 19° 287° (WNW) 1,690 5.1 -13.4°
Maximum altitude 05:52:58 69° 207° (SSW) 884 4.2 -12.5°
Drops below altitude 10° 05:59:37 10° 125° (SE) 2,817 8.0 -10.9°
Sets 06:02:45 0° 123° (ESE) 3,954 9.1 -10.1°
